[[{"header":{"parameterUnit":"m.s-1","parameterCategory":2,"la1":30.2991,"la2":30.254,"lo1":-89.0895,"lo2":-89.0444,"dy":0.0017,"dx":0.0017,"nx":28,"ny":28,"refTime":"2024-06-30T09:00:00:Z","depth":"0","parameterNumber":2,"parameterNumberName":"U-component_of_CURRENTS"},"data":[0,0,0,0,0,0,0,0,0,0,0,0,0,0,0,0,0,0,0,0,0,0,0,0,0,0,0,0,0,0,0,0,0,0,0,0,0,0,0,0,0,0,0,0,0,0,0,0,0,0,0,0,0,0,0,0,0,0,-0.244,-0.2441,0,-0.2546,-0.2547,-0.2548,-0.25,-0.2497,-0.2495,-0.2493,-0.2378,-0.2377,-0.2376,0,0,0,0,0,0,0,0,0,0,0,0,0,-0.2254,-0.2257,-0.244,-0.2441,-0.2443,-0.2546,-0.2547,-0.2548,-0.25,-0.2497,-0.2495,-0.2492,-0.2378,-0.2377,-0.2376,0,0,0,0,0,0,0,0,0,0,0,0,0,-0.234,-0.2258,-0.2439,-0.2436,-0.2437,-0.2546,-0.2547,-0.2548,-0.25,-0.2497,-0.2494,-0.2491,-0.2379,-0.2377,-0.2375,-0.2429,0,0,-0.237,-0.237,0,0,0,0,0,0,0,0,-0.2335,-0.2346,-0.2435,-0.2436,-0.2438,-0.2511,-0.244,-0.2499,-0.2501,-0.2471,-0.2493,-0.249,-0.2408,-0.2404,-0.2426,-0.2424,-0.2419,-0.237,-0.2369,-0.2369,-0.2368,0,0,0,0,0,0,0,-0.2329,-0.2342,-0.2476,-0.2437,-0.2439,-0.245,-0.2457,-0.2452,-0.2447,-0.2473,-0.2471,-0.2493,-0.2406,-0.2428,-0.2422,-0.2417,-0.237,-0.2369,-0.2368,-0.2367,-0.2491,-0.2495,0,0,0,0,0,0,-0.2328,-0.2336,-0.2473,-0.248,-0.2384,-0.2456,-0.2464,-0.2486,-0.2452,-0.2448,-0.2496,-0.249,-0.2432,-0.2424,-0.2418,-0.2491,-0.2369,-0.2367,-0.2366,-0.2487,-0.2492,-0.2496,0,0,0,0,0,0,-0.2324,-0.234,-0.2469,-0.2414,-0.2432,-0.2463,-0.2488,-0.249,-0.2497,-0.2473,-0.2462,-0.2498,-0.2429,-0.242,-0.2426,-0.2484,-0.2366,-0.2365,-0.2482,-0.2488,-0.2494,-0.2628,0,0,0,0,0,0,-0.2318,-0.2337,-0.2333,-0.2415,-0.2435,-0.2529,-0.2492,-0.2495,-0.2519,-0.2513,-0.2473,-0.246,-0.2426,-0.2429,-0.2424,-0.248,-0.2364,-0.2476,-0.2485,-0.2492,-0.2618,-0.2638,-0.2655,0,0,0,0,0,-0.2311,-0.2315,-0.2332,-0.2348,-0.2435,-0.2532,-0.2543,-0.255,-0.2522,-0.254,-0.2522,-0.246,-0.2477,-0.2431,-0.2424,-0.2481,-0.2472,-0.2482,-0.2491,-0.261,-0.2634,-0.2655,0,0,0,0,0,0,-0.2215,-0.2314,-0.2333,-0.2361,-0.2444,-0.2525,-0.2534,-0.2556,-0.2562,-0.254,-0.2501,-0.249,-0.2535,-0.2494,-0.2444,-0.2548,-0.2471,-0.248,-0.2563,-0.2586,-0.2604,-0.2606,-0.2362,0,0,0,0,0,-0.2203,-0.2234,-0.2343,-0.2363,-0.2406,-0.2475,-0.2505,-0.2532,-0.2564,-0.2563,-0.2547,-0.2542,-0.2581,-0.2563,-0.2585,-0.2614,-0.2484,-0.2656,-0.2675,-0.269,-0.2693,-0.2628,-0.2639,-0.2528,-0.2528,-0.2528,0,0,-0.2169,-0.2229,-0.2241,-0.2346,-0.2401,-0.2488,-0.2482,-0.2546,-0.2609,-0.2549,-0.2591,-0.2609,-0.2612,-0.2672,-0.2686,-0.2628,-0.2626,-0.2702,-0.2715,-0.271,-0.2639,-0.2649,-0.2657,-0.2534,-0.2533,-0.2532,0,0,-0.214,-0.218,-0.2209,-0.2293,-0.24,-0.2474,-0.2497,-0.2596,-0.262,-0.2683,-0.2688,-0.2752,-0.2745,-0.2805,-0.2823,-0.2958,-0.2749,-0.2946,-0.3009,-0.2947,-0.2953,-0.2958,-0.2665,-0.2643,-0.2929,-0.293,-0.293,0,-0.2089,-0.2155,-0.2231,-0.2304,-0.2366,-0.2473,-0.2541,-0.2619,-0.2702,-0.2725,-0.2698,-0.2794,-0.283,-0.2928,-0.3007,-0.3003,-0.2824,-0.2916,-0.2964,-0.2967,-0.297,-0.267,-0.2644,-0.2937,-0.2936,-0.2936,-0.2935,0,-0.2107,-0.2167,-0.2198,-0.2332,-0.2413,-0.2492,-0.2632,-0.2698,-0.274,-0.2805,-0.2891,-0.2954,-0.2996,-0.3055,-0.3078,-0.315,-0.2959,-0.3008,-0.2891,-0.2988,-0.2665,-0.2635,-0.2948,-0.2945,-0.2943,-0.2941,0,0,-0.1985,-0.217,-0.2181,-0.2248,-0.2434,-0.2506,-0.2632,-0.2769,-0.2805,-0.291,-0.2928,-0.3126,-0.314,-0.317,-0.3213,-0.3202,-0.3089,-0.311,-0.3103,-0.2783,-0.2724,-0.2624,-0.2577,-0.311,-0.3109,-0.3109,-0.2435,0,-0.1978,-0.2091,-0.2197,-0.2325,-0.2406,-0.2547,-0.2649,-0.2781,-0.2852,-0.2899,-0.3016,-0.3063,-0.3186,-0.3182,-0.3225,-0.3137,-0.3037,-0.3253,-0.2709,-0.2689,-0.2566,-0.2557,-0.2546,-0.1954,-0.2405,-0.24,-0.2396,0,-0.1967,-0.2052,-0.2149,-0.2322,-0.2365,-0.2454,-0.2592,-0.2699,-0.2828,-0.2856,-0.2944,-0.2992,-0.3065,-0.3131,-0.2983,-0.3079,-0.2924,-0.2828,-0.28,-0.2655,-0.2543,-0.1964,-0.1881,-0.193,-0.2348,-0.2352,-0.2355,0,-0.1845,-0.2022,-0.2086,-0.2151,-0.2361,-0.2408,-0.2519,-0.2665,-0.2714,-0.2802,-0.2782,-0.2871,-0.2833,-0.2765,-0.2668,-0.277,-0.2371,-0.2473,-0.2186,-0.2163,-0.2031,-0.2004,-0.1926,-0.232,-0.2321,-0.2323,-0.2325,0,-0.1807,-0.1867,-0.2027,-0.207,-0.2141,-0.2312,-0.2366,-0.248,-0.2567,-0.2595,-0.2743,-0.2714,-0.2751,-0.2583,-0.2511,-0.2205,-0.2221,-0.2151,-0.2031,-0.2063,-0.2049,-0.1992,-0.2069,-0.2298,-0.2303,-0.2308,-0.2313,0,-0.1686,-0.1792,-0.1873,-0.2041,-0.2087,-0.2132,-0.2273,-0.2305,-0.24,-0.241,-0.2422,-0.2482,-0.2281,-0.2192,-0.1957,-0.1928,-0.1658,-0.1571,-0.1498,-0.1394,-0.13,-0.1384,-0.1087,-0.1043,-0.1129,-0.1123,-0.1119,0,-0.1648,-0.1668,-0.1798,-0.1829,-0.1903,-0.1988,-0.2043,-0.2192,-0.2222,-0.2273,-0.2249,-0.2088,-0.2013,-0.157,-0.1452,-0.1127,-0.1287,-0.0927,-0.1271,-0.1259,-0.1262,-0.1357,-0.1352,-0.1017,-0.1012,-0.1008,-0.1004,0,-0.1566,-0.1584,-0.1641,-0.1693,-0.1744,-0.1805,-0.1894,-0.1889,-0.2039,-0.2035,-0.1988,-0.1918,-0.158,-0.1326,-0.095,-0.0828,-0.1001,-0.0831,-0.0894,-0.124,-0.1259,-0.1168,-0.1331,-0.0966,-0.097,-0.0973,-0.0975,-0.0976,-0.1482,-0.1477,-0.1526,-0.1572,-0.1615,-0.1639,-0.1645,-0.1715,-0.1727,-0.1733,-0.1725,-0.1577,-0.1335,-0.088,-0.073,-0.0533,-0.064,-0.0588,-0.0661,-0.0733,-0.0862,-0.0857,-0.0392,-0.0392,-0.0393,-0.0393,-0.0393,0,-0.1405,-0.1404,-0.1423,-0.1466,-0.1462,-0.1527,-0.156,-0.1544,-0.1516,-0.149,-0.1435,-0.1164,-0.0918,-0.0719,-0.0476,-0.0429,-0.0483,-0.0426,-0.0628,-0.0615,-0.0628,-0.0817,-0.0341,-0.0341,-0.0341,-0.0341,-0.0341,-0.0341,-0.1366,-0.1343,-0.1349,-0.132,-0.1337,-0.1306,-0.13,-0.127,-0.1237,-0.1092,-0.094,-0.0818,-0.0655,-0.066,-0.0567,-0.0513,-0.0574,-0.0512,-0.0522,-0.0669,-0.0695,-0.0721,-0.0922,-0.0476,-0.0476,-0.0523,-0.0524,-0.0525]},{"header":{"parameterUnit":"m.s-1","parameterCategory":2,"la1":30.2991,"la2":30.254,"lo1":-89.0895,"lo2":-89.0444,"dy":0.0017,"dx":0.0017,"nx":28,"ny":28,"refTime":"2024-06-30T09:00:00:Z","depth":"0","parameterNumber":3,"parameterNumberName":"V-component_of_CURRENTS"},"data":[0,0,0,0,0,0,0,0,0,0,0,0,0,0,0,0,0,0,0,0,0,0,0,0,0,0,0,0,0,0,0,0,0,0,0,0,0,0,0,0,0,0,0,0,0,0,0,0,0,0,0,0,0,0,0,0,0,0,-0.1266,-0.1266,0,-0.1212,-0.1211,-0.121,-0.1092,-0.109,-0.1088,-0.1086,-0.0938,-0.0936,-0.0934,0,0,0,0,0,0,0,0,0,0,0,0,0,-0.1184,-0.1187,-0.1266,-0.1266,-0.1266,-0.1212,-0.1211,-0.121,-0.1092,-0.109,-0.1087,-0.1085,-0.0939,-0.0936,-0.0934,0,0,0,0,0,0,0,0,0,0,0,0,0,-0.118,-0.1187,-0.1266,-0.1204,-0.1198,-0.1212,-0.1211,-0.121,-0.1093,-0.109,-0.1087,-0.1084,-0.0939,-0.0937,-0.0933,-0.0975,0,0,-0.0924,-0.0923,0,0,0,0,0,0,0,0,-0.1181,-0.1183,-0.1213,-0.1208,-0.1202,-0.1159,-0.1128,-0.1128,-0.1094,-0.1128,-0.1086,-0.1082,-0.1008,-0.0999,-0.0991,-0.0968,-0.0962,-0.0924,-0.0922,-0.0921,-0.092,0,0,0,0,0,0,0,-0.1181,-0.1184,-0.1241,-0.1213,-0.1206,-0.115,-0.1146,-0.1127,-0.1081,-0.1125,-0.1117,-0.1119,-0.1003,-0.0995,-0.0987,-0.096,-0.0924,-0.0921,-0.0919,-0.0918,-0.0865,-0.0866,0,0,0,0,0,0,-0.1205,-0.1186,-0.1242,-0.1239,-0.1188,-0.1154,-0.115,-0.1173,-0.1083,-0.1069,-0.1122,-0.1114,-0.1002,-0.0991,-0.0981,-0.0968,-0.0921,-0.0918,-0.0916,-0.0865,-0.0865,-0.0866,0,0,0,0,0,0,-0.1204,-0.1212,-0.1245,-0.1212,-0.1213,-0.116,-0.1186,-0.1173,-0.1152,-0.1082,-0.1064,-0.1112,-0.0999,-0.0985,-0.0963,-0.0963,-0.0916,-0.0914,-0.0864,-0.0865,-0.0866,-0.0977,0,0,0,0,0,0,-0.1202,-0.1212,-0.1231,-0.1216,-0.1216,-0.1263,-0.1189,-0.1174,-0.116,-0.1149,-0.1069,-0.1052,-0.0995,-0.0968,-0.096,-0.0958,-0.0911,-0.0864,-0.0865,-0.0865,-0.0973,-0.0982,-0.0989,0,0,0,0,0,-0.12,-0.1241,-0.1232,-0.1239,-0.1247,-0.1265,-0.126,-0.1207,-0.1163,-0.1172,-0.1112,-0.1054,-0.0965,-0.0968,-0.0957,-0.0954,-0.0863,-0.0864,-0.0865,-0.097,-0.098,-0.0989,0,0,0,0,0,0,-0.1214,-0.1234,-0.1223,-0.1268,-0.1271,-0.1246,-0.1251,-0.1219,-0.1182,-0.116,-0.1081,-0.1063,-0.1034,-0.099,-0.0993,-0.0938,-0.0897,-0.0896,-0.098,-0.0989,-0.0997,-0.1014,-0.0909,0,0,0,0,0,-0.1234,-0.1268,-0.1274,-0.131,-0.1318,-0.1287,-0.1285,-0.1255,-0.1225,-0.1203,-0.1151,-0.1086,-0.1037,-0.101,-0.0966,-0.0959,-0.0858,-0.0942,-0.095,-0.0957,-0.0963,-0.0757,-0.0745,-0.0869,-0.0869,-0.0869,0,0,-0.1244,-0.1265,-0.1279,-0.1315,-0.1309,-0.1339,-0.1277,-0.1286,-0.1299,-0.1197,-0.1191,-0.1121,-0.1042,-0.1019,-0.1,-0.0978,-0.0885,-0.0959,-0.0966,-0.0967,-0.0756,-0.0743,-0.0732,-0.087,-0.087,-0.087,0,0,-0.129,-0.1312,-0.1349,-0.1363,-0.1375,-0.1375,-0.1384,-0.1369,-0.1348,-0.135,-0.1259,-0.1186,-0.1149,-0.1066,-0.1024,-0.1053,-0.0935,-0.1045,-0.1099,-0.0899,-0.0886,-0.0873,-0.0794,-0.0773,-0.1047,-0.1047,-0.1047,0,-0.1299,-0.1354,-0.1362,-0.1401,-0.142,-0.1399,-0.144,-0.1436,-0.141,-0.1391,-0.1361,-0.122,-0.116,-0.1077,-0.1096,-0.1067,-0.0976,-0.1072,-0.0906,-0.0891,-0.0876,-0.0796,-0.0772,-0.1052,-0.1052,-0.1051,-0.1051,0,-0.1367,-0.1405,-0.1433,-0.1484,-0.1513,-0.1545,-0.1555,-0.1559,-0.1536,-0.1507,-0.1429,-0.1321,-0.1221,-0.1193,-0.117,-0.1044,-0.1026,-0.0939,-0.088,-0.087,-0.0789,-0.0761,-0.106,-0.1058,-0.1057,-0.1055,0,0,-0.1401,-0.1466,-0.1475,-0.1504,-0.1556,-0.1587,-0.1628,-0.1646,-0.1639,-0.158,-0.1509,-0.1433,-0.134,-0.1285,-0.1193,-0.1048,-0.0901,-0.098,-0.0967,-0.0903,-0.0537,-0.0537,-0.0506,-0.0768,-0.0763,-0.0758,-0.0547,0,-0.1447,-0.153,-0.1559,-0.1637,-0.168,-0.1687,-0.1727,-0.1733,-0.1712,-0.1642,-0.1494,-0.1404,-0.1385,-0.1303,-0.1162,-0.0929,-0.0822,-0.0972,-0.0556,-0.0547,-0.0542,-0.047,-0.0419,-0.0225,-0.0519,-0.0514,-0.0511,0,-0.1502,-0.1553,-0.1634,-0.1701,-0.1721,-0.1767,-0.1806,-0.1835,-0.1757,-0.1711,-0.1585,-0.1468,-0.1271,-0.1219,-0.0856,-0.0949,-0.0789,-0.0624,-0.0608,-0.0542,-0.049,-0.0267,-0.0162,-0.003,-0.0467,-0.047,-0.0474,0,-0.152,-0.1605,-0.1674,-0.1698,-0.1773,-0.1803,-0.1845,-0.1844,-0.1847,-0.1722,-0.165,-0.1428,-0.1232,-0.0991,-0.0732,-0.0761,-0.031,-0.0277,-0.0149,-0.0151,0.0006,0.001,0.03,-0.0029,-0.003,-0.003,-0.0031,0,-0.1562,-0.161,-0.1681,-0.1715,-0.1785,-0.1832,-0.1878,-0.1883,-0.1829,-0.1787,-0.1667,-0.1509,-0.1148,-0.0878,-0.0689,-0.0337,-0.0266,-0.0148,-0.0061,-0.0045,-0.0048,0.0165,0.019,-0.0022,-0.0024,-0.0026,-0.0027,0,-0.1563,-0.1612,-0.1681,-0.1763,-0.1793,-0.1841,-0.1908,-0.1924,-0.1886,-0.1795,-0.1739,-0.1475,-0.1121,-0.0841,-0.0379,-0.0242,0.0171,0.0147,0.0064,0.0138,0.0352,0.0366,0.0725,0.085,0.0342,0.0344,0.0346,0,-0.1569,-0.1605,-0.1702,-0.1748,-0.1788,-0.186,-0.1907,-0.1933,-0.1939,-0.1769,-0.1693,-0.1351,-0.109,-0.049,-0.0156,0.0184,0.0292,0.0399,0.036,0.0385,0.047,0.0469,0.0547,0.0497,0.05,0.0502,0.0504,0,-0.1565,-0.1595,-0.1649,-0.1747,-0.1814,-0.1886,-0.1948,-0.1957,-0.1944,-0.1861,-0.1624,-0.139,-0.0821,-0.0349,0.0058,0.0269,0.0507,0.0451,0.0589,0.0696,0.0619,0.0772,0.0232,0.0523,0.0521,0.052,0.0519,0.0518,-0.154,-0.1573,-0.1648,-0.1741,-0.1822,-0.1901,-0.1948,-0.1966,-0.195,-0.1792,-0.1555,-0.1185,-0.056,0.006,0.0281,0.0728,0.0677,0.0853,0.0884,0.0892,0.098,0.0391,0.0712,0.0711,0.071,0.071,0.0709,0,-0.1507,-0.1565,-0.1647,-0.1758,-0.1842,-0.1894,-0.1967,-0.1981,-0.1941,-0.17,-0.1454,-0.0768,-0.0204,0.0327,0.0942,0.1148,0.1218,0.1256,0.1308,0.1386,0.0999,0.0971,0.123,0.123,0.123,0.123,0.1229,0.1229,-0.1492,-0.1557,-0.1615,-0.175,-0.183,-0.1929,-0.1968,-0.1948,-0.1819,-0.1412,-0.1004,-0.0595,0.021,0.0947,0.1495,0.1556,0.1735,0.1691,0.1797,0.1525,0.1489,0.1456,0.144,0.1794,0.1795,0.2209,0.2212,0.2215]}],[{"header":{"parameterUnit":"m.s-1","parameterCategory":2,"la1":30.2991,"la2":30.254,"lo1":-89.0895,"lo2":-89.0444,"dy":0.0017,"dx":0.0017,"nx":28,"ny":28,"refTime":"2024-06-30T09:00:00:Z","depth":"2","parameterNumber":2,"parameterNumberName":"U-component_of_CURRENTS"},"data":[0,0,0,0,0,0,0,0,0,0,0,0,0,0,0,0,0,0,0,0,0,0,0,0,0,0,0,0,0,0,0,0,0,0,0,0,0,0,0,0,0,0,0,0,0,0,0,0,0,0,0,0,0,0,0,0,0,0,-0.2685,-0.2687,0,-0.2722,-0.2722,-0.2721,-0.2686,-0.2686,-0.2685,-0.2684,-0.2579,-0.2577,-0.2575,0,0,0,0,0,0,0,0,0,0,0,0,0,-0.2573,-0.2575,-0.2685,-0.2687,-0.2688,-0.2722,-0.2722,-0.2721,-0.2686,-0.2686,-0.2685,-0.2684,-0.258,-0.2578,-0.2575,0,0,0,0,0,0,0,0,0,0,0,0,0,-0.2609,-0.2575,-0.2685,-0.2681,-0.2682,-0.2722,-0.2722,-0.2721,-0.2686,-0.2686,-0.2685,-0.2684,-0.2581,-0.2578,-0.2575,-0.2572,0,0,-0.2564,-0.2563,0,0,0,0,0,0,0,0,-0.2607,-0.2612,-0.268,-0.2681,-0.2682,-0.2706,-0.2644,-0.2667,-0.2687,-0.2675,-0.2684,-0.2683,-0.2615,-0.2609,-0.2607,-0.2567,-0.2562,-0.2564,-0.2562,-0.256,-0.256,0,0,0,0,0,0,0,-0.2604,-0.261,-0.2691,-0.2682,-0.2683,-0.2674,-0.2677,-0.2648,-0.264,-0.2676,-0.2676,-0.2694,-0.2613,-0.2611,-0.2604,-0.2561,-0.2564,-0.2561,-0.2559,-0.2558,-0.2545,-0.2547,0,0,0,0,0,0,-0.262,-0.2608,-0.269,-0.2693,-0.2651,-0.2677,-0.268,-0.2692,-0.2644,-0.2639,-0.2695,-0.2693,-0.2617,-0.2608,-0.26,-0.26,-0.2561,-0.2557,-0.2555,-0.2544,-0.2546,-0.2547,0,0,0,0,0,0,-0.2617,-0.2626,-0.2689,-0.2658,-0.2667,-0.2681,-0.2694,-0.2694,-0.2689,-0.2661,-0.2652,-0.2691,-0.2616,-0.2605,-0.2593,-0.2596,-0.2556,-0.2553,-0.2542,-0.2544,-0.2546,-0.2596,0,0,0,0,0,0,-0.2613,-0.2625,-0.2622,-0.2659,-0.2669,-0.2713,-0.2696,-0.2695,-0.2706,-0.2702,-0.2655,-0.2645,-0.2614,-0.2599,-0.259,-0.259,-0.255,-0.2539,-0.2543,-0.2546,-0.2592,-0.26,-0.2606,0,0,0,0,0,-0.2609,-0.2611,-0.2622,-0.2632,-0.2671,-0.2715,-0.2717,-0.2718,-0.2707,-0.2708,-0.269,-0.2646,-0.2612,-0.2597,-0.2587,-0.2586,-0.2538,-0.2542,-0.2545,-0.2589,-0.2598,-0.2606,0,0,0,0,0,0,-0.2553,-0.261,-0.2622,-0.2638,-0.2678,-0.2712,-0.2708,-0.2722,-0.271,-0.2693,-0.2663,-0.2653,-0.2652,-0.2619,-0.2603,-0.2598,-0.2569,-0.2571,-0.2606,-0.2614,-0.2621,-0.2544,-0.2547,0,0,0,0,0,-0.2547,-0.2559,-0.2622,-0.263,-0.265,-0.268,-0.2693,-0.2703,-0.2711,-0.2704,-0.2688,-0.2666,-0.2661,-0.2637,-0.2629,-0.2611,-0.255,-0.2608,-0.2615,-0.2621,-0.2555,-0.2515,-0.251,-0.256,-0.256,-0.256,0,0,-0.2522,-0.256,-0.2562,-0.262,-0.2639,-0.2644,-0.2681,-0.2702,-0.2695,-0.2693,-0.2668,-0.2694,-0.267,-0.2667,-0.266,-0.2632,-0.2584,-0.2626,-0.2631,-0.256,-0.2518,-0.2512,-0.2507,-0.2562,-0.2562,-0.2562,0,0,-0.2469,-0.2519,-0.2501,-0.2537,-0.2586,-0.2617,-0.2627,-0.2674,-0.2682,-0.2687,-0.2698,-0.2731,-0.2695,-0.2701,-0.269,-0.2729,-0.2639,-0.273,-0.2674,-0.2639,-0.2632,-0.2626,-0.2566,-0.2554,-0.2713,-0.2714,-0.2714,0,-0.2434,-0.2422,-0.2503,-0.2498,-0.2505,-0.26,-0.2572,-0.261,-0.2648,-0.2633,-0.2673,-0.2671,-0.2704,-0.2674,-0.2714,-0.2739,-0.2678,-0.2645,-0.2643,-0.2635,-0.2627,-0.2567,-0.2553,-0.2716,-0.2716,-0.2716,-0.2715,0,-0.2362,-0.2354,-0.2352,-0.237,-0.2399,-0.2402,-0.2476,-0.2502,-0.2539,-0.2557,-0.2567,-0.2643,-0.2616,-0.2682,-0.2707,-0.268,-0.2644,-0.2674,-0.261,-0.2624,-0.2562,-0.2546,-0.272,-0.2719,-0.2719,-0.2718,0,0,-0.2276,-0.2289,-0.2287,-0.226,-0.2327,-0.2342,-0.2351,-0.2366,-0.2351,-0.2419,-0.238,-0.2472,-0.2511,-0.2505,-0.2579,-0.2584,-0.2562,-0.2595,-0.2592,-0.2512,-0.2431,-0.2333,-0.2305,-0.2574,-0.2571,-0.2569,-0.2417,0,-0.2182,-0.2124,-0.2164,-0.2107,-0.2082,-0.2165,-0.217,-0.2203,-0.2253,-0.2261,-0.2337,-0.2348,-0.2441,-0.2464,-0.2478,-0.2557,-0.2514,-0.2595,-0.2444,-0.2438,-0.2331,-0.2282,-0.2132,-0.1975,-0.24,-0.2398,-0.2396,0,-0.2086,-0.2061,-0.1981,-0.1963,-0.1961,-0.1952,-0.1966,-0.1977,-0.2024,-0.2062,-0.207,-0.2137,-0.2175,-0.2277,-0.2286,-0.2319,-0.2337,-0.2394,-0.239,-0.2244,-0.2307,-0.2027,-0.1929,-0.2368,-0.237,-0.2372,-0.2374,0,-0.1977,-0.193,-0.1855,-0.1853,-0.1865,-0.1836,-0.1842,-0.189,-0.1904,-0.1922,-0.1945,-0.1956,-0.2017,-0.2013,-0.2161,-0.2187,-0.2172,-0.2224,-0.2119,-0.2113,-0.1921,-0.1901,-0.2148,-0.2149,-0.2149,-0.2149,-0.215,0,-0.1864,-0.1807,-0.1795,-0.1761,-0.1685,-0.1725,-0.1674,-0.1701,-0.1743,-0.1749,-0.1821,-0.1864,-0.1958,-0.1998,-0.2059,-0.2032,-0.2064,-0.2045,-0.2045,-0.194,-0.1925,-0.2217,-0.2227,-0.2144,-0.2145,-0.2146,-0.2147,0,-0.176,-0.1752,-0.1671,-0.1645,-0.1632,-0.1579,-0.1583,-0.1564,-0.1622,-0.1638,-0.164,-0.1771,-0.1807,-0.1882,-0.1935,-0.1917,-0.1912,-0.189,-0.1753,-0.1736,-0.1881,-0.1896,-0.1668,-0.1663,-0.1658,-0.1654,-0.1651,0,-0.1696,-0.1638,-0.1586,-0.1543,-0.1524,-0.1467,-0.1445,-0.1488,-0.1497,-0.1603,-0.1612,-0.167,-0.173,-0.1738,-0.1691,-0.1632,-0.1803,-0.1459,-0.1476,-0.1796,-0.1821,-0.1844,-0.1864,-0.1259,-0.1253,-0.1248,-0.1244,0,-0.1565,-0.1556,-0.1499,-0.1423,-0.1373,-0.1324,-0.1299,-0.1313,-0.1387,-0.1445,-0.1546,-0.1598,-0.1581,-0.1486,-0.1398,-0.1363,-0.1444,-0.1349,-0.1693,-0.1416,-0.1401,-0.1431,-0.1466,-0.12,-0.1204,-0.1208,-0.121,-0.1212,-0.1476,-0.141,-0.135,-0.1272,-0.1228,-0.1188,-0.1143,-0.1186,-0.1219,-0.1265,-0.1378,-0.138,-0.1366,-0.1136,-0.1088,-0.1009,-0.1111,-0.1064,-0.1083,-0.1107,-0.1098,-0.1077,-0.0812,-0.0814,-0.0816,-0.0817,-0.0819,0,-0.1348,-0.1288,-0.1203,-0.1114,-0.105,-0.1066,-0.1053,-0.1041,-0.1086,-0.108,-0.1112,-0.0953,-0.0873,-0.0894,-0.0687,-0.0626,-0.0658,-0.0614,-0.0683,-0.0723,-0.0761,-0.0741,-0.0356,-0.0355,-0.0354,-0.0354,0,0,-0.127,-0.1152,-0.1104,-0.0957,-0.0919,-0.0833,-0.0824,-0.0856,-0.0852,-0.079,-0.0729,-0.0709,-0.0799,-0.0551,-0.0498,-0.0417,-0.0569,-0.0373,-0.0732,-0.085,-0.0887,-0.0992,-0.1001,0,0,0,0,0]},{"header":{"parameterUnit":"m.s-1","parameterCategory":2,"la1":30.2991,"la2":30.254,"lo1":-89.0895,"lo2":-89.0444,"dy":0.0017,"dx":0.0017,"nx":28,"ny":28,"refTime":"2024-06-30T09:00:00:Z","depth":"2","parameterNumber":3,"parameterNumberName":"V-component_of_CURRENTS"},"data":[0,0,0,0,0,0,0,0,0,0,0,0,0,0,0,0,0,0,0,0,0,0,0,0,0,0,0,0,0,0,0,0,0,0,0,0,0,0,0,0,0,0,0,0,0,0,0,0,0,0,0,0,0,0,0,0,0,0,0.1038,0.104,0,0.1255,0.1257,0.126,0.1347,0.1347,0.1346,0.1346,0.1473,0.1477,0.148,0,0,0,0,0,0,0,0,0,0,0,0,0,0.0767,0.0771,0.1038,0.1041,0.1043,0.1255,0.1258,0.126,0.1347,0.1347,0.1346,0.1346,0.1472,0.1476,0.1481,0,0,0,0,0,0,0,0,0,0,0,0,0,0.0923,0.0772,0.1037,0.1113,0.1122,0.1254,0.1258,0.1261,0.1347,0.1347,0.1346,0.1346,0.147,0.1476,0.1481,0.1527,0,0,0.1498,0.1501,0,0,0,0,0,0,0,0,0.0914,0.0932,0.1099,0.1108,0.1119,0.1275,0.1209,0.1346,0.1347,0.126,0.1346,0.1345,0.14,0.1411,0.1452,0.1533,0.1539,0.1499,0.1502,0.1505,0.1506,0,0,0,0,0,0,0,0.0903,0.0924,0.1122,0.1102,0.1114,0.1161,0.1181,0.1236,0.1328,0.1268,0.1275,0.1302,0.1404,0.1447,0.1456,0.154,0.1499,0.1504,0.1507,0.1509,0.1656,0.1657,0,0,0,0,0,0,0.0877,0.0914,0.1115,0.1129,0.1014,0.1166,0.1189,0.1224,0.1329,0.1346,0.1302,0.1305,0.1438,0.1449,0.146,0.1452,0.1505,0.151,0.1513,0.1656,0.1656,0.1657,0,0,0,0,0,0,0.087,0.0893,0.1107,0.1026,0.1057,0.117,0.121,0.1229,0.1256,0.1357,0.1371,0.1308,0.1438,0.1452,0.1501,0.146,0.1512,0.1517,0.1655,0.1656,0.1657,0.1479,0,0,0,0,0,0,0.0862,0.089,0.0887,0.1025,0.1061,0.1152,0.1211,0.1233,0.1276,0.1281,0.1367,0.138,0.1438,0.1492,0.1506,0.1468,0.1522,0.1654,0.1655,0.1656,0.1484,0.1474,0.1465,0,0,0,0,0,0.0851,0.0838,0.0886,0.0909,0.106,0.1151,0.1172,0.125,0.1276,0.1274,0.1347,0.1376,0.1509,0.1497,0.1513,0.1476,0.1654,0.1655,0.1656,0.1489,0.1476,0.1465,0,0,0,0,0,0,0.0706,0.0851,0.0904,0.0933,0.1025,0.1165,0.1164,0.1235,0.1296,0.1287,0.1384,0.1402,0.143,0.1493,0.1478,0.153,0.1586,0.159,0.1453,0.1442,0.1432,0.1397,0.1526,0,0,0,0,0,0.068,0.0709,0.0857,0.0872,0.091,0.1037,0.1078,0.1139,0.1224,0.125,0.132,0.1394,0.1455,0.1476,0.1542,0.1566,0.161,0.1559,0.1549,0.1539,0.1528,0.1609,0.1604,0.1661,0.1661,0.1661,0,0,0.0626,0.0707,0.0723,0.0843,0.0914,0.0949,0.1057,0.1102,0.1126,0.1252,0.1277,0.1358,0.1458,0.1487,0.1504,0.1526,0.1533,0.1541,0.1531,0.1525,0.1609,0.1604,0.1598,0.1662,0.1662,0.1661,0,0,0.053,0.0606,0.0601,0.0669,0.0773,0.0857,0.0862,0.0995,0.104,0.1091,0.1191,0.1259,0.1338,0.1417,0.1462,0.1446,0.1484,0.1455,0.1363,0.144,0.1435,0.1432,0.1405,0.1401,0.1442,0.1442,0.1442,0,0.046,0.0492,0.0606,0.0619,0.0662,0.0803,0.0806,0.0873,0.1002,0.1043,0.1063,0.1233,0.1307,0.1378,0.1364,0.1417,0.1433,0.1385,0.1422,0.142,0.1419,0.1394,0.1391,0.1433,0.1434,0.1435,0.1436,0,0.0378,0.0399,0.0391,0.0465,0.0516,0.0538,0.0661,0.0704,0.0773,0.0863,0.0947,0.1073,0.1178,0.1207,0.1267,0.1307,0.1304,0.1398,0.1434,0.1402,0.1378,0.1378,0.1421,0.1424,0.1427,0.1429,0,0,0.0265,0.0324,0.0325,0.034,0.0443,0.0487,0.0507,0.0603,0.0639,0.0735,0.0795,0.0901,0.0992,0.1054,0.116,0.1217,0.1196,0.1274,0.1282,0.1212,0.1275,0.1167,0.1157,0.1288,0.1289,0.129,0.1231,0,0.0178,0.0156,0.0219,0.0204,0.0216,0.0334,0.0358,0.0453,0.0548,0.0634,0.0771,0.0863,0.0928,0.0984,0.1044,0.1201,0.1201,0.1198,0.1349,0.1352,0.1233,0.1157,0.1133,0.1071,0.1231,0.1232,0.1232,0,0.0107,0.0105,0.0068,0.0117,0.0133,0.0138,0.0233,0.0274,0.0418,0.0489,0.0595,0.0732,0.0839,0.0911,0.1066,0.1055,0.1118,0.1212,0.1214,0.1181,0.1246,0.1152,0.1067,0.1233,0.1233,0.1233,0.1233,0,0.0021,0.0018,-0.0016,-0.0001,0.0061,0.0063,0.01,0.0224,0.0281,0.041,0.0479,0.0625,0.0731,0.0844,0.0997,0.1039,0.1144,0.1252,0.1188,0.1179,0.1223,0.1216,0.1313,0.1313,0.1313,0.1313,0.1313,0,-0.005,-0.007,-0.0067,-0.0077,-0.0098,-0.0031,-0.0017,0.0055,0.0163,0.024,0.0398,0.0492,0.0727,0.0836,0.0944,0.1021,0.1092,0.1129,0.1162,0.1151,0.1138,0.1368,0.1375,0.1311,0.1311,0.1312,0.1312,0,-0.01,-0.0109,-0.0136,-0.013,-0.0132,-0.0141,-0.0096,-0.0064,0.0033,0.014,0.0182,0.0397,0.0528,0.0692,0.0889,0.0953,0.1052,0.1049,0.0948,0.097,0.1037,0.1036,0.0988,0.0984,0.0981,0.0978,0.0975,0,-0.0121,-0.015,-0.0177,-0.0194,-0.0195,-0.0211,-0.0201,-0.0136,-0.0091,0.0087,0.0143,0.0298,0.0381,0.0549,0.0729,0.0823,0.0912,0.0832,0.0929,0.0968,0.1007,0.1012,0.1016,0.0895,0.0892,0.089,0.0888,0,-0.0149,-0.0164,-0.0182,-0.0228,-0.0249,-0.0263,-0.0255,-0.0245,-0.0139,-0.006,0.0058,0.0119,0.0296,0.0422,0.0526,0.0608,0.082,0.0781,0.0898,0.0965,0.0873,0.0913,0.0922,0.0866,0.0869,0.087,0.0871,0.0872,-0.0154,-0.0173,-0.0206,-0.0241,-0.0268,-0.029,-0.0296,-0.0281,-0.0242,-0.0153,-0.0097,-0.0025,0.0136,0.0278,0.0421,0.0615,0.0646,0.0713,0.0725,0.0739,0.0723,0.0628,0.0567,0.0567,0.0568,0.0568,0.0568,0,-0.0156,-0.0179,-0.0211,-0.0253,-0.0282,-0.0291,-0.0295,-0.0309,-0.0283,-0.026,-0.0244,-0.0138,-0.0037,0.0178,0.0454,0.0563,0.0644,0.059,0.0699,0.0716,0.0731,0.0723,0.0563,0.0564,0.0565,0.0565,0,0,-0.0157,-0.0189,-0.0207,-0.0253,-0.0276,-0.0294,-0.0295,-0.0331,-0.0323,-0.0357,-0.0321,-0.0369,-0.0078,0.0097,0.0279,0.0453,0.0558,0.0465,0.0446,0.0568,0.0583,0.0766,0.0762,0,0,0,0,0]}],[{"header":{"parameterUnit":"m.s-1","parameterCategory":2,"la1":30.2991,"la2":30.254,"lo1":-89.0895,"lo2":-89.0444,"dy":0.0017,"dx":0.0017,"nx":28,"ny":28,"refTime":"2024-06-30T09:00:00:Z","depth":"4","parameterNumber":2,"parameterNumberName":"U-component_of_CURRENTS"},"data":[0,0,0,0,0,0,0,0,0,0,0,0,0,0,0,0,0,0,0,0,0,0,0,0,0,0,0,0,0,0,0,0,0,0,0,0,0,0,0,0,0,0,0,0,0,0,0,0,0,0,0,0,0,0,0,0,0,0,-0.0844,-0.0844,0,-0.0907,-0.0908,-0.0908,-0.0968,-0.0969,-0.0969,-0.097,-0.1097,-0.11,-0.1102,0,0,0,0,0,0,0,0,0,0,0,0,0,-0.0769,-0.077,-0.0844,-0.0845,-0.0845,-0.0907,-0.0908,-0.0908,-0.0968,-0.0969,-0.097,-0.0971,-0.1096,-0.1099,-0.1102,0,0,0,0,0,0,0,0,0,0,0,0,0,-0.0812,-0.077,-0.0843,-0.0884,-0.0888,-0.0907,-0.0908,-0.0909,-0.0967,-0.0969,-0.097,-0.0971,-0.1095,-0.1099,-0.1103,-0.1099,0,0,-0.1114,-0.1116,0,0,0,0,0,0,0,0,-0.0809,-0.0814,-0.0877,-0.0881,-0.0886,-0.0932,-0.0928,-0.0976,-0.0967,-0.0935,-0.097,-0.0972,-0.1048,-0.1056,-0.1061,-0.1105,-0.1111,-0.1115,-0.1117,-0.1119,-0.112,0,0,0,0,0,0,0,-0.0806,-0.0812,-0.0867,-0.0878,-0.0883,-0.0897,-0.0905,-0.0937,-0.0983,-0.0938,-0.0943,-0.0952,-0.1051,-0.1057,-0.1065,-0.1113,-0.1115,-0.1118,-0.112,-0.1122,-0.1276,-0.1278,0,0,0,0,0,0,-0.0801,-0.0809,-0.0865,-0.0869,-0.0852,-0.0898,-0.0906,-0.0915,-0.0982,-0.0993,-0.0951,-0.0955,-0.105,-0.106,-0.107,-0.116,-0.1119,-0.1122,-0.1124,-0.1274,-0.1276,-0.1278,0,0,0,0,0,0,-0.0799,-0.0805,-0.0862,-0.0842,-0.0851,-0.0898,-0.0907,-0.0915,-0.0949,-0.0991,-0.1004,-0.098,-0.1052,-0.1064,-0.1137,-0.1162,-0.1124,-0.1127,-0.1272,-0.1275,-0.1277,-0.1282,0,0,0,0,0,0,-0.0796,-0.0804,-0.0815,-0.0842,-0.0852,-0.0902,-0.0906,-0.0916,-0.0952,-0.0958,-0.102,-0.1031,-0.1054,-0.1131,-0.1141,-0.1166,-0.113,-0.127,-0.1273,-0.1276,-0.128,-0.1285,-0.1289,0,0,0,0,0,-0.0794,-0.0797,-0.0815,-0.0823,-0.0863,-0.0903,-0.0911,-0.0946,-0.0952,-0.0979,-0.1024,-0.1031,-0.116,-0.1136,-0.1147,-0.1174,-0.1268,-0.1272,-0.1276,-0.1278,-0.1284,-0.1289,0,0,0,0,0,0,-0.0773,-0.0804,-0.0825,-0.084,-0.0885,-0.0915,-0.0934,-0.0956,-0.1008,-0.1021,-0.1053,-0.1069,-0.1146,-0.1161,-0.1133,-0.1231,-0.1215,-0.1221,-0.1212,-0.1218,-0.1223,-0.1272,-0.1134,0,0,0,0,0,-0.0772,-0.0778,-0.0827,-0.0839,-0.0864,-0.0903,-0.0924,-0.0956,-0.0999,-0.1022,-0.108,-0.1128,-0.1164,-0.1193,-0.1243,-0.1287,-0.1298,-0.1314,-0.1319,-0.1322,-0.1372,-0.138,-0.1389,-0.1291,-0.1291,-0.1291,0,0,-0.0763,-0.0782,-0.0786,-0.0835,-0.0867,-0.0901,-0.0919,-0.0964,-0.1003,-0.1028,-0.1116,-0.1157,-0.1184,-0.1247,-0.128,-0.1264,-0.1352,-0.1328,-0.133,-0.1379,-0.1385,-0.1394,-0.1403,-0.1294,-0.1294,-0.1293,0,0,-0.0743,-0.0775,-0.0779,-0.0819,-0.0878,-0.0909,-0.0929,-0.1,-0.1049,-0.1145,-0.1152,-0.1213,-0.1307,-0.1311,-0.1322,-0.138,-0.1383,-0.1398,-0.1453,-0.1457,-0.1465,-0.1473,-0.1472,-0.1479,-0.139,-0.139,-0.139,0,-0.0739,-0.0754,-0.079,-0.0815,-0.0849,-0.0914,-0.0946,-0.0997,-0.1092,-0.1133,-0.1195,-0.1317,-0.1338,-0.1356,-0.1397,-0.139,-0.1404,-0.1417,-0.1461,-0.1469,-0.1476,-0.1474,-0.1482,-0.1391,-0.139,-0.139,-0.139,0,-0.0731,-0.0755,-0.0765,-0.0814,-0.0854,-0.0899,-0.0976,-0.104,-0.113,-0.1194,-0.131,-0.1373,-0.144,-0.1447,-0.1459,-0.1502,-0.1498,-0.1466,-0.1439,-0.1486,-0.148,-0.1488,-0.1392,-0.1391,-0.1391,-0.1391,0,0,-0.0706,-0.075,-0.0761,-0.0782,-0.0868,-0.0897,-0.0965,-0.1049,-0.1091,-0.125,-0.1313,-0.143,-0.1494,-0.1514,-0.1516,-0.1549,-0.1597,-0.1557,-0.1557,-0.1545,-0.1624,-0.145,-0.1441,-0.1576,-0.1578,-0.158,-0.1589,0,-0.0705,-0.0727,-0.0764,-0.0806,-0.083,-0.0906,-0.096,-0.1041,-0.1148,-0.123,-0.1329,-0.1413,-0.15,-0.1535,-0.1591,-0.1613,-0.1627,-0.16,-0.1596,-0.1597,-0.1424,-0.1447,-0.1587,-0.1595,-0.1597,-0.1598,-0.1599,0,-0.0703,-0.0715,-0.0744,-0.0797,-0.082,-0.0859,-0.0948,-0.1014,-0.112,-0.1219,-0.1338,-0.1409,-0.1516,-0.1554,-0.1682,-0.1673,-0.1673,-0.1687,-0.1684,-0.154,-0.1437,-0.1549,-0.1613,-0.1612,-0.1611,-0.161,-0.1609,0,-0.0658,-0.0709,-0.0726,-0.0749,-0.0818,-0.0852,-0.091,-0.1012,-0.1073,-0.1199,-0.1248,-0.1411,-0.148,-0.1575,-0.1657,-0.1682,-0.1748,-0.1743,-0.1575,-0.1561,-0.1713,-0.1706,-0.178,-0.178,-0.178,-0.178,-0.178,0,-0.0643,-0.0662,-0.0705,-0.0715,-0.0749,-0.0822,-0.0883,-0.0962,-0.1062,-0.109,-0.1241,-0.1257,-0.1501,-0.1552,-0.1637,-0.1644,-0.1726,-0.1611,-0.1558,-0.1711,-0.1704,-0.1716,-0.1709,-0.178,-0.178,-0.178,-0.178,0,-0.06,-0.0626,-0.0646,-0.0706,-0.0722,-0.0758,-0.0852,-0.089,-0.1,-0.1022,-0.1057,-0.1189,-0.127,-0.1423,-0.1537,-0.1569,-0.1595,-0.1532,-0.1685,-0.1636,-0.1421,-0.1415,-0.1409,-0.1403,-0.1398,-0.1394,-0.139,0,-0.0578,-0.0576,-0.0621,-0.0625,-0.0657,-0.071,-0.0735,-0.0859,-0.0886,-0.0928,-0.0906,-0.0981,-0.1053,-0.1125,-0.1284,-0.141,-0.1387,-0.1415,-0.1469,-0.1437,-0.1387,-0.1388,-0.1388,-0.1382,-0.1381,-0.1379,-0.1378,0,-0.0535,-0.0556,-0.0573,-0.0573,-0.0591,-0.0609,-0.0647,-0.0655,-0.0743,-0.0809,-0.0769,-0.0807,-0.0843,-0.1008,-0.1091,-0.1165,-0.1445,-0.1363,-0.1376,-0.1427,-0.1404,-0.136,-0.1366,-0.1361,-0.1363,-0.1365,-0.1366,0,-0.0511,-0.0511,-0.052,-0.0527,-0.0525,-0.0501,-0.0542,-0.0547,-0.0589,-0.0643,-0.0589,-0.0661,-0.0765,-0.0861,-0.0918,-0.1016,-0.1047,-0.1094,-0.1122,-0.1143,-0.106,-0.0993,-0.0789,0,0,0,0,0,-0.048,-0.0469,-0.0466,-0.0453,-0.0446,-0.0443,-0.0467,-0.051,-0.0542,-0.0496,-0.0567,-0.0575,-0.0657,-0.0704,-0.077,-0.0824,-0.1067,-0.0895,-0.1137,-0.1263,-0.1284,-0.1216,0,0,0,0,0,0,-0.0455,-0.0453,-0.045,-0.0383,-0.0353,-0.0334,-0.0346,-0.0373,-0.0379,-0.0421,-0.049,-0.0531,-0.0653,-0.0615,-0.0747,-0.0772,-0.0918,-0.0963,-0.0962,-0.1252,-0.127,-0.1287,-0.1224,0,0,0,0,0]},{"header":{"parameterUnit":"m.s-1","parameterCategory":2,"la1":30.2991,"la2":30.254,"lo1":-89.0895,"lo2":-89.0444,"dy":0.0017,"dx":0.0017,"nx":28,"ny":28,"refTime":"2024-06-30T09:00:00:Z","depth":"4","parameterNumber":3,"parameterNumberName":"V-component_of_CURRENTS"},"data":[0,0,0,0,0,0,0,0,0,0,0,0,0,0,0,0,0,0,0,0,0,0,0,0,0,0,0,0,0,0,0,0,0,0,0,0,0,0,0,0,0,0,0,0,0,0,0,0,0,0,0,0,0,0,0,0,0,0,-0.0491,-0.0491,0,-0.0495,-0.0495,-0.0495,-0.0492,-0.0492,-0.0492,-0.0492,-0.0466,-0.0465,-0.0464,0,0,0,0,0,0,0,0,0,0,0,0,0,-0.046,-0.046,-0.0491,-0.0492,-0.0492,-0.0495,-0.0495,-0.0495,-0.0492,-0.0492,-0.0492,-0.0492,-0.0466,-0.0465,-0.0464,0,0,0,0,0,0,0,0,0,0,0,0,0,-0.0467,-0.0461,-0.0491,-0.0493,-0.0494,-0.0495,-0.0495,-0.0495,-0.0492,-0.0492,-0.0492,-0.0493,-0.0466,-0.0465,-0.0464,-0.0451,0,0,-0.046,-0.0459,0,0,0,0,0,0,0,0,-0.0467,-0.0468,-0.0492,-0.0493,-0.0494,-0.0496,-0.0475,-0.048,-0.0492,-0.0489,-0.0492,-0.0493,-0.0475,-0.0473,-0.0469,-0.045,-0.0449,-0.046,-0.0459,-0.0459,-0.0458,0,0,0,0,0,0,0,-0.0466,-0.0467,-0.049,-0.0493,-0.0494,-0.0487,-0.0488,-0.0475,-0.0478,-0.0489,-0.049,-0.0495,-0.0475,-0.047,-0.0469,-0.0449,-0.046,-0.0459,-0.0458,-0.0458,-0.0449,-0.0449,0,0,0,0,0,0,-0.0473,-0.0467,-0.049,-0.049,-0.0484,-0.0488,-0.0489,-0.0492,-0.0479,-0.0478,-0.0495,-0.0495,-0.0473,-0.047,-0.0468,-0.0503,-0.0459,-0.0457,-0.0457,-0.0448,-0.0449,-0.0449,0,0,0,0,0,0,-0.0472,-0.0475,-0.0489,-0.0481,-0.0483,-0.0488,-0.0492,-0.0493,-0.0496,-0.0484,-0.0482,-0.05,-0.0473,-0.0469,-0.0476,-0.05,-0.0457,-0.0456,-0.0448,-0.0448,-0.0449,-0.0542,0,0,0,0,0,0,-0.0471,-0.0474,-0.0481,-0.0482,-0.0484,-0.0501,-0.0493,-0.0493,-0.05,-0.05,-0.0487,-0.0484,-0.0473,-0.0478,-0.0474,-0.0498,-0.0455,-0.0447,-0.0448,-0.0449,-0.0538,-0.0546,-0.0552,0,0,0,0,0,-0.047,-0.0482,-0.0481,-0.0484,-0.0492,-0.0502,-0.0503,-0.0505,-0.05,-0.0506,-0.0504,-0.0485,-0.0481,-0.0478,-0.0473,-0.0497,-0.0446,-0.0448,-0.0449,-0.0535,-0.0544,-0.0552,0,0,0,0,0,0,-0.0474,-0.0483,-0.0482,-0.0496,-0.0503,-0.0503,-0.0513,-0.0509,-0.051,-0.0511,-0.0495,-0.0493,-0.0518,-0.0483,-0.0479,-0.0494,-0.0459,-0.0459,-0.0526,-0.0534,-0.0541,-0.0505,-0.0454,0,0,0,0,0,-0.0478,-0.0489,-0.0494,-0.0508,-0.0513,-0.0512,-0.0516,-0.0516,-0.0518,-0.0519,-0.0507,-0.0498,-0.0516,-0.0506,-0.0511,-0.0507,-0.0441,-0.0516,-0.0523,-0.0529,-0.0495,-0.0442,-0.0441,-0.0453,-0.0453,-0.0453,0,0,-0.0487,-0.0492,-0.05,-0.051,-0.0515,-0.0527,-0.0515,-0.0527,-0.0538,-0.0515,-0.0523,-0.0533,-0.0526,-0.0545,-0.0548,-0.0517,-0.0492,-0.0531,-0.0537,-0.0498,-0.0443,-0.0442,-0.0441,-0.0454,-0.0454,-0.0454,0,0,-0.0506,-0.0512,-0.0526,-0.0532,-0.0543,-0.0544,-0.055,-0.0549,-0.0551,-0.0555,-0.0565,-0.0582,-0.0568,-0.0584,-0.0588,-0.0625,-0.0548,-0.0626,-0.0614,-0.0565,-0.0563,-0.056,-0.0477,-0.0466,-0.0609,-0.0609,-0.0609,0,-0.0514,-0.053,-0.0532,-0.0545,-0.0557,-0.0554,-0.0572,-0.0575,-0.0574,-0.0579,-0.0564,-0.0583,-0.0588,-0.0627,-0.0639,-0.0644,-0.0576,-0.0593,-0.0574,-0.057,-0.0566,-0.048,-0.0467,-0.0614,-0.0613,-0.0613,-0.0612,0,-0.0535,-0.0554,-0.0565,-0.0581,-0.0594,-0.061,-0.0617,-0.063,-0.0625,-0.0615,-0.0641,-0.0644,-0.0647,-0.0665,-0.0657,-0.0651,-0.0601,-0.061,-0.0554,-0.057,-0.0479,-0.0464,-0.062,-0.0619,-0.0617,-0.0616,0,0,-0.0535,-0.0573,-0.0577,-0.0594,-0.0614,-0.0626,-0.0659,-0.0679,-0.0702,-0.0679,-0.0695,-0.0717,-0.0698,-0.0698,-0.0708,-0.0649,-0.0582,-0.0598,-0.0593,-0.0515,-0.0425,-0.0429,-0.0411,-0.0579,-0.0577,-0.0576,-0.0374,0,-0.055,-0.0584,-0.0601,-0.0639,-0.0657,-0.0679,-0.0709,-0.0726,-0.0735,-0.0747,-0.0735,-0.0757,-0.0719,-0.0739,-0.0675,-0.063,-0.0542,-0.0631,-0.0418,-0.041,-0.0413,-0.0395,-0.0569,-0.0362,-0.0359,-0.0356,-0.0354,0,-0.056,-0.0583,-0.0624,-0.0672,-0.0683,-0.0711,-0.0768,-0.0791,-0.0813,-0.0821,-0.0817,-0.0804,-0.0764,-0.0726,-0.0569,-0.062,-0.0503,-0.0434,-0.0425,-0.0375,-0.0385,-0.034,-0.0325,-0.0328,-0.033,-0.0332,-0.0333,0,-0.0552,-0.06,-0.0635,-0.0649,-0.07,-0.0737,-0.0769,-0.081,-0.0838,-0.0872,-0.0881,-0.0832,-0.0821,-0.0667,-0.0529,-0.0532,-0.0327,-0.0332,-0.0207,-0.0205,-0.0221,-0.0225,-0.017,-0.017,-0.0171,-0.0171,-0.0172,0,-0.0556,-0.0587,-0.0639,-0.0656,-0.0708,-0.074,-0.0801,-0.0842,-0.0889,-0.089,-0.0906,-0.0897,-0.0797,-0.0685,-0.0521,-0.0317,-0.0315,-0.0173,-0.0151,-0.0265,-0.0277,-0.0209,-0.0216,-0.0164,-0.0166,-0.0167,-0.0168,0,-0.0551,-0.0581,-0.0622,-0.0681,-0.0707,-0.0742,-0.0823,-0.0858,-0.0908,-0.0918,-0.0926,-0.0932,-0.0802,-0.0677,-0.0464,-0.033,-0.0138,-0.0059,-0.0167,-0.016,-0.0031,-0.0046,0.0128,0.0129,0.0131,0.0132,0.0133,0,-0.0554,-0.0573,-0.0635,-0.0664,-0.0699,-0.0759,-0.0798,-0.0865,-0.0883,-0.0905,-0.0886,-0.0844,-0.0804,-0.0522,-0.0396,-0.0115,-0.0078,0.0045,0.001,-0.0003,0.0001,-0.0016,-0.0032,0.0135,0.0135,0.0136,0.0136,0,-0.0555,-0.0578,-0.0609,-0.0664,-0.0709,-0.0759,-0.0806,-0.082,-0.085,-0.0886,-0.0839,-0.0752,-0.0634,-0.0494,-0.0324,-0.0106,-0.0032,0.006,0.0059,0.0028,0.0007,0.0006,-0.0011,0.0141,0.014,0.014,0.0139,0,-0.0553,-0.0572,-0.061,-0.0656,-0.0709,-0.0741,-0.0775,-0.0777,-0.0803,-0.08,-0.0768,-0.0693,-0.0672,-0.0482,-0.029,-0.0138,-0.0073,0.0023,0.0026,0.0022,-0.0098,-0.0146,-0.0011,0,0,0,0,0,-0.0544,-0.0562,-0.0604,-0.065,-0.0702,-0.0734,-0.0767,-0.0787,-0.0785,-0.0734,-0.0757,-0.0638,-0.0451,-0.0415,-0.0254,-0.0246,-0.0042,-0.0045,0.0071,0.0167,0.0161,0.0034,0,0,0,0,0,0,-0.0537,-0.0571,-0.059,-0.0634,-0.0667,-0.072,-0.0739,-0.0742,-0.0716,-0.0707,-0.0637,-0.0571,-0.0427,-0.0557,-0.0254,-0.0213,-0.0102,0.0028,0.0033,0.017,0.0165,0.016,0.0028,0,0,0,0,0]}]]